Location: Alpha Ridge Park
(39.3209°N, 76.9128°W)
Time: 22:37:40
(UTC-04:00)

S-56A Canister/Altair - Pass Details

Date: 22 May 2019
Orbit: 633 x 2499 km, 38.9° (Epoch: 14 June)

Event Time Altitude Azimuth Distance (km) Brightness Sun altitude
Rises 02:39:55 0° 235° (SW) 3,378 - -26.3°
Reaches altitude 10° 02:42:06 10° 231° (SW) 2,605 - -26.1°
Exits shadow 02:47:05 52° 187° (S) 1,380 8.3 -25.7°
Maximum altitude 02:48:12 57° 154° (SSE) 1,371 8.5 -25.6°
Drops below altitude 10° 02:57:30 10° 79° (E) 3,897 11.6 -24.7°
Sets 03:01:27 0° 76° (ENE) 5,190 12.4 -24.4°
